Hourly Data Report for July 30, 2021

TORONTO INTL A
ONTARIO
Current Station Operator: NAVCAN

43°40'36.000" N
79°37'50.000" W
173.40 m
6158731
71624
YYZ

Download Data

Hourly Data (July 2021)
Hourly Data Report for July 30, 2021
TIME
LST
Temp Definition
°C
Dew Point Definition
°C
Rel Hum Definition
%
Precip. Amount Definition
mm

Wind Dir Definition
10's deg

Wind Spd Definition
km/h
Visibility Definition
km
Stn Press Definition
kPa
Hmdx Definition


Wind Chill Definition


Weather Definition


00:00 19.3 16.9 86   32 18 24.1 98.97     LegendNANA
01:00 19.3 15.2 77   35 26 24.1 99.00     Mainly Clear
02:00 17.9 14.8 82   35 27 24.1 99.05     LegendNANA
03:00 17.4 14.4 83   35 25 24.1 99.13     LegendNANA
04:00 16.7 13.8 83   35 26 24.1 99.20     Clear
05:00 15.9 12.9 82   34 26 24.1 99.28     LegendNANA
06:00 15.8 12.4 80   35 21 24.1 99.35     LegendNANA
07:00 16.3 12.2 76   35 25 24.1 99.43     Mainly Clear
08:00 17.4 9.2 59   34 34 24.1 99.49     LegendNANA
09:00 18.0 9.0 55   32 35 24.1 99.50     LegendNANA
10:00 18.0 8.8 55   35 32 24.1 99.56     Mainly Clear
11:00 18.3 9.1 54   33 32 24.1 99.61     LegendNANA
12:00 18.9 9.8 55   33 26 24.1 99.65     LegendNANA
13:00 19.7 9.3 50   31 30 24.1 99.64     Mostly Cloudy
14:00 19.9 9.9 52   32 23 24.1 99.61     LegendNANA
15:00 19.6 9.2 51   31 21 24.1 99.65     LegendNANA
16:00 19.3 8.6 49   34 24 24.1 99.61     Mainly Clear
17:00 18.9 9.0 52   35 23 24.1 99.64     LegendNANA
18:00 18.8 8.4 50   31 22 24.1 99.62     LegendNANA
19:00 17.3 7.4 52   36 25 24.1 99.66     Clear
20:00 16.2 7.4 56   36 23 24.1 99.67     LegendNANA
21:00 15.4 8.0 61   36 16 24.1 99.71     LegendNANA
22:00 15.3 8.3 63   35 13 24.1 99.71     Mainly Clear
23:00 14.2 8.7 69   35 11 24.1 99.71     LegendNANA

Notes on Data Quality.

Legend

  • E = Estimated
  • M = Missing
  • NA = Not Available*
  • [empty] = Indicates an unobserved value
Date modified: